| time (UTC) | temp F | wind direction | speed MPH | gust MPH | rain 1hr in | rain 24hr in | rain mn in | humidity % | barometer mb |
| 20260508132707 | 49 | 293 | 15.0 | 24.0 | 0.00 | 0.00 | 0.00 | 76 | 1001.9 |
| 20260508130907 | 49 | 291 | 14.0 | 21.0 | 0.00 | 0.00 | 0.00 | 75 | 1001.8 |
| 20260508130007 | 49 | 295 | 16.0 | 25.0 | 0.00 | 0.00 | 0.00 | 76 | 1001.9 |
| 20260508124207 | 49 | 295 | 15.0 | 21.0 | 0.00 | 0.00 | 0.00 | 75 | 1001.9 |
| 20260508123307 | 49 | 295 | 13.0 | 20.0 | 0.00 | 0.00 | 0.00 | 74 | 1001.9 |
| 20260508121507 | 49 | 298 | 13.0 | 18.0 | 0.00 | 0.00 | 0.00 | 74 | 1001.7 |
| 20260508120607 | 48 | 301 | 12.0 | 20.0 | 0.00 | 0.00 | 0.00 | 72 | 1001.7 |
| 20260508115707 | 48 | 293 | 15.0 | 20.0 | 0.00 | 0.00 | 0.00 | 75 | 1001.7 |
| 20260508113907 | 48 | 294 | 15.0 | 20.0 | 0.00 | 0.00 | 0.00 | 75 | 1001.5 |
| 20260508113007 | 48 | 294 | 14.0 | 19.0 | 0.00 | 0.00 | 0.00 | 76 | 1001.5 |
| 20260508112107 | 48 | 295 | 14.0 | 19.0 | 0.00 | 0.00 | 0.00 | 76 | 1001.3 |
| 20260508111207 | 47 | 293 | 12.0 | 17.0 | 0.00 | 0.00 | 0.00 | 81 | 1001.3 |
| 20260508110307 | 47 | 297 | 13.0 | 18.0 | 0.00 | 0.00 | 0.00 | 81 | 1001.3 |
| 20260508104507 | 47 | 302 | 17.0 | 21.0 | 0.00 | 0.00 | 0.00 | 80 | 1001.0 |
| 20260508103606 | 47 | 310 | 13.0 | 22.0 | 0.00 | 0.00 | 0.00 | 80 | 1000.9 |
| 20260508100906 | 47 | 324 | 17.0 | 21.0 | 0.00 | 0.00 | 0.00 | 82 | 1000.7 |
| 20260508100006 | 47 | 322 | 18.0 | 22.0 | 0.00 | 0.00 | 0.00 | 80 | 1000.5 |
| 20260508095106 | 47 | 325 | 18.0 | 22.0 | 0.00 | 0.00 | 0.00 | 82 | 1000.5 |
| 20260508094206 | 47 | 324 | 17.0 | 21.0 | 0.00 | 0.00 | 0.00 | 83 | 1000.6 |
| 20260508093306 | 47 | 321 | 16.0 | 23.0 | 0.00 | 0.00 | 0.00 | 82 | 1000.4 |
| 20260508090606 | 47 | 329 | 9.0 | 13.0 | 0.00 | 0.00 | 0.00 | 80 | 1000.1 |
| 20260508085706 | 47 | 332 | 11.0 | 16.0 | 0.00 | 0.00 | 0.00 | 79 | 1000.2 |
| 20260508084806 | 47 | 339 | 10.0 | 14.0 | 0.00 | 0.00 | 0.00 | 78 | 1000.2 |
| 20260508083906 | 46 | 342 | 11.0 | 16.0 | 0.00 | 0.00 | 0.00 | 78 | 1000.2 |
| 20260508082106 | 46 | 336 | 15.0 | 23.0 | 0.00 | 0.00 | 0.00 | 77 | 1000.3 |
| 20260508081206 | 46 | 337 | 18.0 | 23.0 | 0.00 | 0.00 | 0.00 | 76 | 1000.5 |
| 20260508080306 | 46 | 337 | 16.0 | 23.0 | 0.00 | 0.00 | 0.00 | 78 | 1000.5 |
| 20260508075406 | 46 | 341 | 15.0 | 24.0 | 0.00 | 0.00 | 0.00 | 79 | 1000.5 |
| 20260508074506 | 46 | 345 | 16.0 | 24.0 | 0.00 | 0.00 | 0.00 | 79 | 1000.6 |
| 20260508073606 | 46 | 347 | 20.0 | 27.0 | 0.00 | 0.00 | 0.00 | 79 | 1000.6 |
| 20260508072706 | 46 | 340 | 19.0 | 29.0 | 0.00 | 0.00 | 0.00 | 82 | 1000.7 |
| 20260508071806 | 46 | 332 | 30.0 | 48.0 | 0.00 | 0.01 | 0.00 | 78 | 1000.8 |
| 20260508070906 | 48 | 326 | 23.0 | 48.0 | 0.00 | 0.02 | 0.00 | 67 | 1000.3 |
| 20260508065106 | 50 | 333 | 20.0 | 24.0 | 0.00 | 0.04 | 0.00 | 61 | 1000.3 |
| 20260508064206 | 50 | 358 | 15.0 | 23.0 | 0.00 | 0.04 | 0.00 | 54 | 1000.0 |
| 20260508063305 | 51 | 30 | 14.0 | 16.0 | 0.00 | 0.04 | 0.00 | 54 | 999.1 |
| 20260508062405 | 51 | 31 | 12.0 | 15.0 | 0.00 | 0.05 | 0.00 | 56 | 998.9 |
| 20260508061505 | 51 | 34 | 12.0 | 15.0 | 0.00 | 0.05 | 0.00 | 54 | 998.8 |
| 20260508054805 | 52 | 39 | 8.0 | 12.0 | 0.00 | 0.05 | 0.00 | 54 | 998.5 |
| 20260508053905 | 51 | 38 | 8.0 | 13.0 | 0.00 | 0.05 | 0.00 | 56 | 998.7 |
| 20260508053005 | 52 | 31 | 7.0 | 14.0 | 0.00 | 0.05 | 0.00 | 56 | 998.7 |
| 20260508052105 | 52 | 31 | 6.0 | 12.0 | 0.00 | 0.05 | 0.00 | 54 | 998.6 |
| 20260508050305 | 53 | 35 | 5.0 | 11.0 | 0.00 | 0.05 | 0.00 | 55 | 998.6 |
| 20260508045405 | 53 | 317 | 5.0 | 11.0 | 0.00 | 0.05 | 0.00 | 57 | 998.6 |
| 20260508044505 | 53 | 31 | 4.0 | 11.0 | 0.00 | 0.05 | 0.00 | 59 | 998.4 |
| 20260508043605 | 53 | 22 | 4.0 | 7.0 | 0.00 | 0.05 | 0.00 | 58 | 998.6 |
| 20260508042705 | 53 | 37 | 5.0 | 11.0 | 0.00 | 0.05 | 0.00 | 59 | 998.7 |
| 20260508041805 | 53 | 40 | 9.0 | 12.0 | 0.00 | 0.05 | 0.00 | 57 | 998.7 |
| 20260508040905 | 53 | 35 | 8.0 | 11.0 | 0.00 | 0.05 | 0.00 | 58 | 998.8 |
| 20260508040005 | 53 | 36 | 9.0 | 10.0 | 0.00 | 0.05 | 0.00 | 60 | 998.7 |
| 20260508034205 | 53 | 34 | 10.0 | 14.0 | 0.00 | 0.05 | 0.00 | 61 | 998.8 |
| 20260508033305 | 53 | 33 | 5.0 | 11.0 | 0.00 | 0.05 | 0.00 | 60 | 998.8 |
| 20260508032405 | 53 | 37 | 1.0 | 3.0 | 0.00 | 0.05 | 0.00 | 62 | 998.7 |
| 20260508031505 | 53 | 272 | 1.0 | 3.0 | 0.00 | 0.05 | 0.00 | 62 | 998.7 |
| 20260508030605 | 53 | 28 | 2.0 | 5.0 | 0.00 | 0.06 | 0.00 | 66 | 998.7 |
| 20260508025705 | 52 | 71 | 2.0 | 5.0 | 0.00 | 0.08 | 0.00 | 70 | 998.7 |
| 20260508024805 | 52 | 199 | 3.0 | 9.0 | 0.00 | 0.10 | 0.00 | 69 | 998.6 |
| 20260508023905 | 52 | 239 | 5.0 | 9.0 | 0.00 | 0.10 | 0.00 | 74 | 998.6 |
| 20260508023004 | 52 | 240 | 7.0 | 10.0 | 0.00 | 0.10 | 0.00 | 75 | 998.5 |
| 20260508022104 | 51 | 227 | 7.0 | 10.0 | 0.00 | 0.10 | 0.00 | 77 | 998.6 |
| 20260508021205 | 51 | 224 | 7.0 | 10.0 | 0.00 | 0.10 | 0.00 | 76 | 998.6 |
| 20260508020304 | 52 | 227 | 7.0 | 11.0 | 0.00 | 0.10 | 0.00 | 74 | 998.6 |
| 20260508015404 | 51 | 226 | 8.0 | 12.0 | 0.00 | 0.10 | 0.00 | 74 | 998.6 |
| 20260508014504 | 52 | 223 | 7.0 | 11.0 | 0.00 | 0.10 | 0.00 | 74 | 998.6 |
| 20260508013604 | 52 | 215 | 6.0 | 11.0 | 0.00 | 0.10 | 0.00 | 73 | 998.5 |
| 20260508012704 | 52 | 199 | 5.0 | 9.0 | 0.00 | 0.10 | 0.00 | 71 | 998.4 |
| 20260508011804 | 53 | 221 | 6.0 | 9.0 | 0.00 | 0.10 | 0.00 | 66 | 998.4 |
| 20260508010004 | 54 | 217 | 4.0 | 7.0 | 0.00 | 0.10 | 0.00 | 58 | 998.3 |
| 20260508005104 | 56 | 293 | 3.0 | 7.0 | 0.00 | 0.10 | 0.00 | 56 | 998.1 |
| 20260508003304 | 57 | 8 | 11.0 | 14.0 | 0.00 | 0.10 | 0.00 | 44 | 997.9 |
| 20260508002404 | 57 | 351 | 11.0 | 15.0 | 0.00 | 0.10 | 0.00 | 46 | 997.7 |
| 20260508001504 | 58 | 339 | 9.0 | 12.0 | 0.00 | 0.10 | 0.00 | 44 | 997.7 |
| 20260508000604 | 58 | 334 | 8.0 | 11.0 | 0.00 | 0.10 | 0.00 | 43 | 997.7 |
| 20260507234804 | 58 | 324 | 6.0 | 10.0 | 0.00 | 0.10 | 0.10 | 44 | 997.4 |
| 20260507233904 | 58 | 318 | 7.0 | 12.0 | 0.00 | 0.10 | 0.10 | 45 | 997.5 |
| 20260507233004 | 59 | 320 | 8.0 | 12.0 | 0.00 | 0.10 | 0.10 | 41 | 997.2 |
| 20260507232104 | 59 | 300 | 5.0 | 9.0 | 0.00 | 0.10 | 0.10 | 41 | 997.0 |
| 20260507231204 | 59 | 300 | 7.0 | 10.0 | 0.00 | 0.10 | 0.10 | 41 | 996.9 |
| 20260507230304 | 59 | 295 | 8.0 | 13.0 | 0.00 | 0.10 | 0.10 | 40 | 996.8 |
| 20260507225404 | 60 | 288 | 7.0 | 11.0 | 0.00 | 0.10 | 0.10 | 40 | 996.9 |
| 20260507224504 | 59 | 290 | 8.0 | 13.0 | 0.00 | 0.10 | 0.10 | 39 | 996.9 |
| 20260507223603 | 60 | 302 | 7.0 | 12.0 | 0.00 | 0.10 | 0.10 | 40 | 996.8 |
| 20260507222704 | 60 | 289 | 9.0 | 15.0 | 0.00 | 0.10 | 0.10 | 39 | 996.9 |
| 20260507221803 | 60 | 296 | 8.0 | 14.0 | 0.00 | 0.10 | 0.10 | 39 | 996.9 |
| 20260507220903 | 59 | 295 | 8.0 | 13.0 | 0.00 | 0.10 | 0.10 | 38 | 996.9 |
| 20260507220004 | 60 | 288 | 7.0 | 13.0 | 0.00 | 0.10 | 0.10 | 38 | 996.9 |
| 20260507215103 | 61 | 294 | 5.0 | 13.0 | 0.00 | 0.10 | 0.10 | 38 | 996.9 |
| 20260507214203 | 59 | 293 | 8.0 | 13.0 | 0.00 | 0.10 | 0.10 | 38 | 996.8 |
| 20260507213303 | 60 | 289 | 6.0 | 13.0 | 0.00 | 0.10 | 0.10 | 39 | 996.8 |
| 20260507211503 | 59 | 297 | 8.0 | 16.0 | 0.00 | 0.10 | 0.10 | 39 | 996.8 |
| 20260507205703 | 60 | 281 | 7.0 | 13.0 | 0.00 | 0.10 | 0.10 | 38 | 996.7 |
| 20260507203903 | 59 | 290 | 7.0 | 14.0 | 0.00 | 0.10 | 0.10 | 39 | 996.8 |
| 20260507203003 | 58 | 290 | 8.0 | 14.0 | 0.00 | 0.10 | 0.10 | 39 | 996.8 |
| 20260507202103 | 58 | 284 | 10.0 | 18.0 | 0.00 | 0.10 | 0.10 | 39 | 996.8 |
| 20260507201203 | 58 | 289 | 10.0 | 15.0 | 0.00 | 0.10 | 0.10 | 39 | 996.8 |
| 20260507200303 | 58 | 297 | 9.0 | 15.0 | 0.00 | 0.10 | 0.10 | 39 | 996.8 |
| 20260507195403 | 58 | 292 | 7.0 | 13.0 | 0.00 | 0.10 | 0.10 | 39 | 997.0 |
| 20260507194503 | 58 | 286 | 11.0 | 18.0 | 0.00 | 0.10 | 0.10 | 41 | 997.0 |
| 20260507192703 | 58 | 307 | 7.0 | 12.0 | 0.00 | 0.10 | 0.10 | 40 | 997.2 |
| 20260507191803 | 57 | 350 | 9.0 | 16.0 | 0.00 | 0.10 | 0.10 | 42 | 997.2 |
| 20260507190903 | 57 | 317 | 8.0 | 13.0 | 0.00 | 0.10 | 0.10 | 41 | 997.3 |
| 20260507190004 | 57 | 308 | 7.0 | 11.0 | 0.00 | 0.10 | 0.10 | 43 | 997.4 |
| 20260507185102 | 57 | 322 | 9.0 | 15.0 | 0.00 | 0.10 | 0.10 | 43 | 997.6 |
| 20260507184202 | 56 | 320 | 7.0 | 14.0 | 0.00 | 0.10 | 0.10 | 43 | 997.8 |
| 20260507183302 | 56 | 353 | 9.0 | 16.0 | 0.00 | 0.11 | 0.10 | 43 | 997.9 |
| 20260507182402 | 56 | 319 | 6.0 | 16.0 | 0.00 | 0.11 | 0.10 | 41 | 998.0 |
| 20260507180602 | 55 | 358 | 9.0 | 15.0 | 0.00 | 0.11 | 0.10 | 42 | 998.3 |
| 20260507175702 | 55 | 350 | 10.0 | 15.0 | 0.00 | 0.11 | 0.10 | 43 | 998.3 |
| 20260507174802 | 55 | 320 | 8.0 | 17.0 | 0.00 | 0.11 | 0.10 | 44 | 998.3 |
| 20260507173902 | 54 | 328 | 13.0 | 22.0 | 0.00 | 0.12 | 0.10 | 45 | 998.4 |
| 20260507172102 | 54 | 318 | 12.0 | 21.0 | 0.00 | 0.14 | 0.10 | 44 | 998.6 |
| 20260507171202 | 54 | 335 | 12.0 | 20.0 | 0.00 | 0.15 | 0.10 | 47 | 998.6 |
| 20260507170302 | 54 | 340 | 12.0 | 23.0 | 0.00 | 0.16 | 0.10 | 48 | 998.8 |
| 20260507165402 | 54 | 349 | 11.0 | 17.0 | 0.00 | 0.16 | 0.10 | 48 | 998.9 |
| 20260507163602 | 53 | 329 | 11.0 | 20.0 | 0.00 | 0.16 | 0.10 | 51 | 999.1 |
| 20260507162702 | 54 | 339 | 7.0 | 13.0 | 0.00 | 0.16 | 0.10 | 53 | 999.2 |
| 20260507161802 | 54 | 342 | 7.0 | 18.0 | 0.00 | 0.16 | 0.10 | 57 | 999.5 |
| 20260507154202 | 53 | 320 | 10.0 | 17.0 | 0.00 | 0.16 | 0.10 | 69 | 999.8 |
| 20260507153303 | 52 | 318 | 11.0 | 19.0 | 0.00 | 0.16 | 0.10 | 72 | 999.9 |
| 20260507152402 | 52 | 356 | 11.0 | 17.0 | 0.00 | 0.16 | 0.10 | 72 | 999.9 |
| 20260507151502 | 51 | 338 | 12.0 | 19.0 | 0.00 | 0.16 | 0.10 | 75 | 1000.0 |
| 20260507150602 | 51 | 336 | 11.0 | 17.0 | 0.00 | 0.16 | 0.10 | 77 | 1000.1 |
| 20260507145702 | 51 | 344 | 12.0 | 18.0 | 0.00 | 0.16 | 0.10 | 77 | 1000.0 |
| 20260507144802 | 51 | 323 | 10.0 | 16.0 | 0.00 | 0.16 | 0.10 | 78 | 1000.0 |
| 20260507143901 | 50 | 338 | 11.0 | 16.0 | 0.00 | 0.16 | 0.10 | 81 | 1000.0 |
| 20260507143002 | 50 | 335 | 11.0 | 16.0 | 0.00 | 0.16 | 0.10 | 83 | 999.9 |
| 20260507142102 | 50 | 336 | 10.0 | 16.0 | 0.00 | 0.16 | 0.10 | 82 | 1000.0 |
| 20260507140302 | 49 | 320 | 13.0 | 20.0 | 0.00 | 0.16 | 0.10 | 85 | 1000.0 |
| 20260507135402 | 49 | 350 | 15.0 | 24.0 | 0.00 | 0.16 | 0.10 | 84 | 999.9 |
| 20260507134502 | 49 | 334 | 15.0 | 20.0 | 0.00 | 0.16 | 0.10 | 84 | 999.9 |
| 20260507133601 | 49 | 354 | 14.0 | 21.0 | 0.00 | 0.16 | 0.10 | 83 | 999.8 |